Regional Weather Roundup
Issued by NWS Jackson, KY

Home | Current Version | Previous Version | Text Only | Print | Product List | Glossary Off
Versions: 1 2 3 4 5 6 7 8 9 10 11 12 13 14 15 16 17 18 19 20 21 22 23 24 25 26 27 28 29 30 31 32 33 34 35 36 37 38 39 40 41 42 43 44 45 46 47 48 49 50

000
ASUS43 KJKL 190619
RWRJKL

EAST KENTUCKY HOURLY WEATHER ROUNDUP
NATIONAL WEATHER SERVICE JACKSON KY
200 AM EDT FRI SEP 19 2014

NOTE: "FAIR" INDICATES FEW OR NO CLOUDS BELOW 12,000 FEET WITH
NO SIGNIFICANT WEATHER AND/OR OBSTRUCTIONS TO VISIBILITY.

* THESE REPORTS ARE NOT UNDER NWS QUALITY CONTROL AND MAY NOT
  REPORT WEATHER SUCH AS PRECIPITATION AND FOG.

KYZ079-080-083-085-087-088-110-112-115-119-120-190700
...EASTERN KENTUCKY...

CITY           SKY/WX    TMP DP  RH WIND       PRES   REMARKS
JACKSON        CLEAR     58  50  75 CALM      30.11S
6HR MIN TEMP:  58; 6HR MAX TEMP:  62;

LONDON         CLEAR     59  53  80 CALM      30.10S
6HR MIN TEMP:  59; 6HR MAX TEMP:  66;

MONTICELLO*    CLEAR     56  55  96 CALM      30.10F
6HR MIN TEMP:  55; 6HR MAX TEMP:  64;

WILLIAMSBURG*  CLEAR     57  55  94 CALM      30.09S
MIDDLESBORO*   PTCLDY    55  54  99 CALM      30.10S
6HR MIN TEMP:  55; 6HR MAX TEMP:  65;

HARLAN APT*    PTCLDY    54  54 100 MISG      30.11S
HAZARD APT*    CLEAR     55  55 100 CALM      30.11  FOG
BLACK MTN*       N/A     52  52 100 E3          N/A
PIKEVILLE APT* CLEAR     55  54  94 N3        30.12R
BIG SANDY*     CLEAR     54  54  98 CALM      30.12S
6HR MIN TEMP:  54; 6HR MAX TEMP:  62;

MOREHEAD APT*  PTCLDY    57  46  67 E6        30.15S
$$

KYZ035-036-041-042-044-050-067-078-099-190700
...CENTRAL KENTUCKY...

CITY           SKY/WX    TMP DP  RH WIND       PRES   REMARKS
MT STERLING*   CLEAR     55  50  82 E7        30.14S
FLEMING/MASON* CLEAR     54  48  82 NE5       30.15S
DANVILLE*      CLEAR     52  50  93 CALM      30.12S
RICHMOND*      CLEAR     54  52  94 CALM      30.10S
LEXINGTON      CLEAR     60  48  64 E9        30.12S
6HR MIN TEMP:  60; 6HR MAX TEMP:  65;

FRANKFORT      CLEAR     57  50  77 NE3       30.12R
6HR MIN TEMP:  53; 6HR MAX TEMP:  66;

$$

KYZ091>093-OHZ055-061-077-WVZ005-015-034-035-042-190700
...SOUTHERN OHIO/WEST VIRGINIA...

CITY           SKY/WX    TMP DP  RH WIND       PRES   REMARKS
COVINGTON      CLEAR     58  46  64 E5        30.15R
COLUMBUS       CLEAR     58  49  72 NE9       30.17S
DAYTON         CLEAR     54  50  86 E7        30.19R
WILMINGTON     CLEAR     51  46  83 NE7       30.16S
HUNTINGTON     CLEAR     56  48  74 NE3       30.13R
CHARLESTON     PTCLDY    53  53 100 CALM      30.12S
PINEVILLE*     MOCLDY    55  55 100 MISG      30.18R FOG
BECKLEY        CLEAR     53  50  89 CALM      30.15S
BLUEFIELD      CLOUDY    58  52  80 E3        30.16R
$$

VAZ002-007-008-TNZ017-027-036-066-071-190700
...SOUTHWEST VIRGINIA/EAST TENNESSEE...

CITY           SKY/WX    TMP DP  RH WIND       PRES   REMARKS
WISE*          CLEAR     55  54  94 CALM      30.15S
JONESVILLE*    CLEAR     52  52 100 CALM      30.11F
ABINGDON*      CLEAR     60  56  86 CALM      30.11S
BRISTOL        CLEAR     55  52  89 N3        30.09S
KNOXVILLE      MOCLDY    61  57  87 NE5       30.04S
OAK RIDGE      CLEAR     60  58  92 CALM      30.07S
CROSSVILLE     CLEAR     60  55  83 CALM      30.09S
NASHVILLE      CLEAR     63  59  87 CALM      30.05R
$$

...KEY TO REMARKS...
VSB - VISIBILITY IN MILES
WCI - WIND CHILL INDEX
HX  - HEAT INDEX

$$


USA.gov is the U.S. government's official web portal to all federal, state and local government web resources and services.